Content
SEND FEEDBACK

Daily
Averages
Monthly
Summary
United States of America

GOSHEN SPRINGS, MISSISSIPPI


Home > North America > United States > Mississippi
Elevation: 30 feet     Latitude: 32 31N     Longitude: 089 56W

WEATHER
 
SELECT A DAY
Number of Records: 214,892;   Date Range: 1/1/95 - 9/29/14
 
SHARE

PRINT THIS DATA

[ ← Previous Day ]
WEATHER ALMANAC - FEBRUARY 13, 2013
[ Next Day → ]
[ °C ]   °F
Weather ElementAverageHighLow
Temperature46.5 °F50 °F (12:54 am)34 °F (11:54 pm)
Dewpoint40 °F48 °F (12:54 am)32 °F (11:54 pm)
Humidity78.5 %93 % (12:54 am)61 % (12:54 pm)
Barometer29.97 in30.08 in (9:54 pm)29.82 in (12:54 am)
Wind Speed9.6 mph17.3 mph (1:19 pm)
Wind Gust24.2 mph (3:54 am)
Weather ElementAverage
Visibility9.9 mi
Wind DirectionWSW (256.8 °)

Weather ElementTotal
Precipitation---
Heating Degree Days23 (Base 65)
Averaged from 44 records on February 13, 2013
WEATHER CONDITIONS BREAKOUT
WIND DIRECTION BREAKOUT
WEATHER BY HOUR - FEBRUARY 13, 2013
[ °C ]   °F
Local TimeTemperatureDewpointHumidityBarometerVisibilityWind DirectionWind SpeedGust SpeedPrecipitationEventsConditions
12:54 AM50.0 °F48.0 °F93 %29.82 in10.0 miWest (270°)11.5 mphOvercast
1:10 AM50.0 °F46.4 °F87 %29.84 in10.0 miWest (260°)11.5 mphOvercast
1:54 AM50.0 °F46.0 °F86 %29.83 in10.0 miWest (260°)11.5 mphMostly Cloudy
2:08 AM48.2 °F44.6 °F87 %29.83 in10.0 miWest (260°)11.5 mph17.3 mphScattered Clouds
2:19 AM48.2 °F46.4 °F93 %29.83 in10.0 miWSW (250°)9.2 mphMostly Cloudy
2:42 AM48.2 °F44.6 °F87 %29.84 in10.0 miWest (260°)9.2 mphScattered Clouds
2:54 AM48.0 °F45.0 °F89 %29.85 in10.0 miWSW (240°)8.1 mphPartly Cloudy
3:21 AM48.2 °F44.6 °F87 %29.87 in10.0 miWSW (250°)11.5 mphMostly Cloudy
3:54 AM48.0 °F44.1 °F86 %29.88 in10.0 miWest (260°)12.7 mph24.2 mphOvercast
4:54 AM48.0 °F44.1 °F86 %29.89 in10.0 miWest (270°)13.8 mph19.6 mphOvercast
5:54 AM46.0 °F42.1 °F86 %29.91 in10.0 miWNW (290°)10.4 mph19.6 mph0.00 inOvercast
6:13 AM46.4 °F42.8 °F87 %29.91 in10.0 miWNW (290°)8.1 mphOvercast
6:54 AM46.0 °F42.1 °F86 %29.93 in10.0 miWNW (290°)12.7 mphOvercast
7:54 AM46.0 °F41.0 °F83 %29.94 in10.0 miWNW (290°)6.9 mphOvercast
8:02 AM46.4 °F41.0 °F81 %29.95 in10.0 miWNW (290°)9.2 mphOvercast
8:49 AM46.4 °F41.0 °F81 %29.98 in10.0 miWest (280°)10.4 mphOvercast
8:54 AM46.9 °F41.0 °F80 %29.99 in10.0 miWest (270°)6.9 mphOvercast
9:18 AM46.4 °F41.0 °F81 %30.00 in10.0 miWNW (300°)8.1 mphOvercast
9:39 AM48.2 °F39.2 °F71 %30.00 in10.0 miWest (280°)12.7 mph18.4 mphOvercast
9:54 AM48.0 °F39.9 °F74 %30.00 in10.0 miNW (310°)11.5 mph18.4 mphOvercast
10:08 AM48.2 °F39.2 °F71 %30.01 in10.0 miNW (310°)11.5 mph17.3 mphOvercast
10:19 AM48.2 °F39.2 °F71 %30.00 in10.0 miNW (320°)12.7 mph20.7 mphOvercast
10:32 AM46.4 °F39.2 °F76 %30.00 in10.0 miNW (310°)11.5 mphOvercast
10:45 AM48.2 °F39.2 °F71 %30.00 in10.0 miWNW (300°)10.4 mph19.6 mphOvercast
10:54 AM48.0 °F39.0 °F71 %30.00 in10.0 miWNW (290°)15.0 mph24.2 mphOvercast
11:54 AM50.0 °F41.0 °F71 %30.00 in10.0 miNW (310°)9.2 mph17.3 mphMostly Cloudy
12:12 PM50.0 °F39.2 °F66 %30.00 in10.0 miWNW (300°)15.0 mph21.9 mphMostly Cloudy
12:33 PM50.0 °F37.4 °F62 %29.99 in10.0 miNNW (330°)13.8 mphOvercast
12:54 PM50.0 °F37.0 °F61 %29.99 in10.0 miNNW (330°)13.8 mph23.0 mphOvercast
1:11 PM48.2 °F37.4 °F66 %29.99 in10.0 miNW (320°)12.7 mph19.6 mphOvercast
1:19 PM48.2 °F37.4 °F66 %29.99 in10.0 miNNW (330°)17.3 mph21.9 mphOvercast
1:32 PM48.2 °F37.4 °F66 %29.99 in10.0 miNW (320°)11.5 mph19.6 mphOvercast
1:54 PM50.0 °F39.0 °F66 %29.99 in10.0 miNNW (330°)15.0 mph18.4 mphOvercast
2:54 PM48.0 °F36.0 °F63 %30.00 in10.0 miNW (320°)10.4 mphOvercast
3:54 PM48.0 °F37.9 °F68 %30.01 in10.0 miNorth (350°)6.9 mphOvercast
4:21 PM46.4 °F37.4 °F71 %30.02 in10.0 miNorth (360°)10.4 mphOvercast
4:54 PM46.9 °F37.9 °F71 %30.02 in10.0 miNorth (350°)9.2 mphOvercast
5:54 PM45.0 °F37.0 °F74 %30.04 in10.0 miNorth (350°)8.1 mphOvercast
6:54 PM42.1 °F36.0 °F79 %30.05 in10.0 miCalmMostly Cloudy
7:54 PM39.9 °F36.0 °F86 %30.06 in10.0 miCalmMostly Cloudy
8:54 PM37.9 °F35.1 °F89 %30.07 in10.0 miCalmPartly Cloudy
9:54 PM36.0 °F34.0 °F93 %30.08 in10.0 miCalmPartly Cloudy
10:54 PM36.0 °F34.0 °F93 %30.08 in8.0 miCalmPartly Cloudy
11:54 PM34.0 °F32.0 °F92 %30.08 in8.0 miCalmClear
Hourly data recorded from KJAN, located miles away from Goshen Springs, Mississippi







STORIES FROM OUR PARTNERS